Time,TemperatureF,DewpointF,PressureIn,WindDirection,WindDirectionDegrees,WindSpeedMPH,WindSpeedGustMPH,Humidity,HourlyPrecipIn,Conditions,Clouds,dailyrainin,SoftwareType,DateUTC
2013-01-23 00:02:00,46.0,44.0,29.44,SE,136,5.0,15.0,91,-99.99,,,-99.99,,2013-01-22 23:02:00,
2013-01-23 00:12:00,46.0,44.0,29.44,SE,136,5.0,15.0,91,-99.99,,,-99.99,,2013-01-22 23:12:00,
2013-01-23 00:22:00,46.0,43.0,29.44,SE,133,0.0,14.0,90,-99.99,,,-99.99,,2013-01-22 23:22:00,
2013-01-23 00:32:00,46.0,43.0,29.44,SE,134,0.0,19.0,90,-99.99,,,-99.99,,2013-01-22 23:32:00,
2013-01-23 00:42:00,46.0,43.0,29.44,SE,134,0.0,19.0,90,-99.99,,,-99.99,,2013-01-22 23:42:00,
2013-01-23 00:53:00,46.0,44.0,29.44,SE,136,5.0,15.0,91,-99.99,,,-99.99,,2013-01-22 23:53:00,
2013-01-23 01:02:00,46.0,44.0,29.44,SE,136,12.0,12.0,91,-99.99,,,-99.99,,2013-01-23 00:02:00,
2013-01-23 01:12:00,46.0,44.0,29.44,SE,136,12.0,12.0,91,-99.99,,,-99.99,,2013-01-23 00:12:00,
2013-01-23 01:22:00,46.0,43.0,29.41,SE,135,0.0,3.0,90,-99.99,,,-99.99,,2013-01-23 00:22:00,
2013-01-23 01:33:00,45.0,43.0,29.41,SE,136,0.0,1.0,91,-99.99,,,-99.99,,2013-01-23 00:33:00,
2013-01-23 01:42:00,45.0,43.0,29.41,SE,136,0.0,1.0,91,-99.99,,,-99.99,,2013-01-23 00:42:00,
2013-01-23 01:52:00,45.0,43.0,29.41,SE,136,0.0,0.0,91,-99.99,,,-99.99,,2013-01-23 00:52:00,
2013-01-23 02:02:00,45.0,43.0,29.41,SE,136,0.0,0.0,91,-99.99,,,-99.99,,2013-01-23 01:02:00,
2013-01-23 02:12:00,45.0,43.0,29.41,SE,136,0.0,0.0,91,-99.99,,,-99.99,,2013-01-23 01:12:00,
2013-01-23 02:22:00,46.0,43.0,29.41,SE,134,0.0,0.0,90,-99.99,,,-99.99,,2013-01-23 01:22:00,
2013-01-23 02:32:00,46.0,43.0,29.41,SE,133,2.0,11.0,90,-99.99,,,-99.99,,2013-01-23 01:32:00,
2013-01-23 02:42:00,46.0,43.0,29.41,SE,133,2.0,11.0,90,-99.99,,,-99.99,,2013-01-23 01:42:00,
2013-01-23 02:52:00,46.0,44.0,29.41,SE,137,6.0,19.0,91,-99.99,,,-99.99,,2013-01-23 01:52:00,
2013-01-23 03:03:00,47.0,45.0,29.41,SE,135,0.0,23.0,91,-99.99,,,-99.99,,2013-01-23 02:03:00,
2013-01-23 03:12:00,47.0,45.0,29.41,SE,135,0.0,23.0,91,-99.99,,,-99.99,,2013-01-23 02:12:00,
2013-01-23 03:22:00,46.0,44.0,29.41,SE,136,11.0,24.0,91,-99.99,,,-99.99,,2013-01-23 02:22:00,
2013-01-23 03:32:00,46.0,43.0,29.41,SE,133,3.0,26.0,90,-99.99,,,-99.99,,2013-01-23 02:32:00,
2013-01-23 03:42:00,46.0,43.0,29.41,SE,133,3.0,26.0,90,-99.99,,,-99.99,,2013-01-23 02:42:00,
2013-01-23 03:52:00,46.0,43.0,29.41,SE,133,0.0,18.0,90,-99.99,,,-99.99,,2013-01-23 02:52:00,
2013-01-23 04:02:00,46.0,43.0,29.41,SE,133,0.0,1.0,90,-99.99,,,-99.99,,2013-01-23 03:02:00,
2013-01-23 04:12:00,46.0,43.0,29.41,SE,133,0.0,1.0,90,-99.99,,,-99.99,,2013-01-23 03:12:00,
2013-01-23 04:22:00,46.0,44.0,29.41,SE,136,2.0,10.0,91,-99.99,,,-99.99,,2013-01-23 03:22:00,
2013-01-23 04:32:00,45.0,43.0,29.41,SE,136,6.0,14.0,91,-99.99,,,-99.99,,2013-01-23 03:32:00,
2013-01-23 04:42:00,45.0,43.0,29.41,SE,136,6.0,14.0,91,-99.99,,,-99.99,,2013-01-23 03:42:00,
2013-01-23 04:53:00,44.0,42.0,29.44,SE,137,2.0,8.0,91,-99.99,,,-99.99,,2013-01-23 03:53:00,
2013-01-23 05:02:00,44.0,42.0,29.44,SE,136,0.0,5.0,91,-99.99,,,-99.99,,2013-01-23 04:02:00,
2013-01-23 05:12:00,44.0,42.0,29.44,SE,136,0.0,5.0,91,-99.99,,,-99.99,,2013-01-23 04:12:00,
2013-01-23 05:22:00,44.0,42.0,29.44,SE,136,0.0,5.0,91,-99.99,,,-99.99,,2013-01-23 04:22:00,
2013-01-23 05:32:00,44.0,42.0,29.44,SE,136,0.0,1.0,91,-99.99,,,-99.99,,2013-01-23 04:32:00,
2013-01-23 05:42:00,44.0,42.0,29.44,SE,136,0.0,1.0,91,-99.99,,,-99.99,,2013-01-23 04:42:00,
2013-01-23 05:53:00,46.0,44.0,29.44,SE,134,4.0,30.0,91,-99.99,,,-99.99,,2013-01-23 04:53:00,
2013-01-23 06:03:00,45.0,43.0,29.44,SE,135,1.0,27.0,91,-99.99,,,-99.99,,2013-01-23 05:03:00,
2013-01-23 06:12:00,45.0,43.0,29.44,SE,135,1.0,27.0,91,-99.99,,,-99.99,,2013-01-23 05:12:00,
2013-01-23 06:22:00,45.0,43.0,29.44,SE,134,4.0,25.0,91,-99.99,,,-99.99,,2013-01-23 05:22:00,
2013-01-23 06:33:00,46.0,44.0,29.44,SE,135,0.0,6.0,91,-99.99,,,-99.99,,2013-01-23 05:33:00,
2013-01-23 06:42:00,46.0,44.0,29.44,SE,135,0.0,6.0,91,-99.99,,,-99.99,,2013-01-23 05:42:00,
2013-01-23 06:52:00,46.0,44.0,29.44,SE,135,0.0,6.0,91,-99.99,,,-99.99,,2013-01-23 05:52:00,
2013-01-23 07:02:00,46.0,44.0,29.44,SE,134,0.0,7.0,91,-99.99,,,-99.99,,2013-01-23 06:02:00,
2013-01-23 07:12:00,46.0,44.0,29.44,SE,134,0.0,7.0,91,-99.99,,,-99.99,,2013-01-23 06:12:00,
2013-01-23 07:22:00,46.0,44.0,29.44,SE,134,0.0,7.0,91,-99.99,,,-99.99,,2013-01-23 06:22:00,
2013-01-23 07:32:00,44.0,42.0,29.44,SE,136,3.0,12.0,91,-99.99,,,-99.99,,2013-01-23 06:32:00,
2013-01-23 07:43:00,44.0,42.0,29.44,SE,136,3.0,12.0,91,-99.99,,,-99.99,,2013-01-23 06:43:00,
2013-01-23 07:53:00,43.0,41.0,29.47,SE,137,0.0,8.0,91,-99.99,,,-99.99,,2013-01-23 06:53:00,
2013-01-23 08:02:00,44.0,41.0,29.47,SE,133,0.0,0.0,90,-99.99,,,-99.99,,2013-01-23 07:02:00,
2013-01-23 08:12:00,44.0,41.0,29.47,SE,133,0.0,0.0,90,-99.99,,,-99.99,,2013-01-23 07:12:00,
2013-01-23 08:22:00,44.0,42.0,29.47,SE,136,0.0,0.0,91,-99.99,,,-99.99,,2013-01-23 07:22:00,
2013-01-23 08:33:00,44.0,42.0,29.47,SE,136,0.0,0.0,93,-99.99,,,-99.99,,2013-01-23 07:33:00,
2013-01-23 08:42:00,44.0,42.0,29.47,SE,136,0.0,0.0,93,-99.99,,,-99.99,,2013-01-23 07:42:00,
2013-01-23 08:52:00,43.0,43.0,29.50,SE,141,0.0,0.0,99,-99.99,,,-99.99,,2013-01-23 07:52:00,
2013-01-23 09:02:00,43.0,43.0,29.50,SE,146,0.0,0.0,99,-99.99,,,-99.99,,2013-01-23 08:02:00,
2013-01-23 09:11:00,43.0,43.0,29.50,SE,146,0.0,0.0,99,-99.99,,,-99.99,,2013-01-23 08:11:00,
2013-01-23 09:22:00,43.0,43.0,29.50,SSE,150,0.0,0.0,99,-99.99,,,-99.99,,2013-01-23 08:22:00,
2013-01-23 09:32:00,43.0,43.0,29.50,SSE,147,0.0,0.0,99,-99.99,,,-99.99,,2013-01-23 08:32:00,
2013-01-23 09:42:00,43.0,43.0,29.50,SSE,147,0.0,0.0,99,-99.99,,,-99.99,,2013-01-23 08:42:00,
2013-01-23 09:52:00,44.0,44.0,29.50,SSE,150,0.0,0.0,99,-99.99,,,-99.99,,2013-01-23 08:52:00,
2013-01-23 10:02:00,44.0,44.0,29.50,SSE,150,0.0,1.0,99,-99.99,,,-99.99,,2013-01-23 09:02:00,
2013-01-23 10:12:00,44.0,44.0,29.50,SSE,150,0.0,1.0,99,-99.99,,,-99.99,,2013-01-23 09:12:00,
2013-01-23 10:22:00,44.0,44.0,29.50,SSE,150,0.0,1.0,99,-99.99,,,-99.99,,2013-01-23 09:22:00,
2013-01-23 10:32:00,44.0,44.0,29.50,SSE,148,0.0,1.0,99,-99.99,,,-99.99,,2013-01-23 09:32:00,
2013-01-23 10:43:00,44.0,44.0,29.50,SSE,148,0.0,1.0,99,-99.99,,,-99.99,,2013-01-23 09:43:00,
2013-01-23 10:53:00,44.0,44.0,29.50,SSE,148,0.0,2.0,99,-99.99,,,-99.99,,2013-01-23 09:53:00,
2013-01-23 11:02:00,44.0,44.0,29.53,SSE,151,0.0,0.0,99,-99.99,,,-99.99,,2013-01-23 10:02:00,
2013-01-23 11:12:00,44.0,44.0,29.53,SSE,151,0.0,0.0,99,-99.99,,,-99.99,,2013-01-23 10:12:00,
2013-01-23 11:22:00,44.0,44.0,29.53,SSE,151,0.0,0.0,99,-99.99,,,-99.99,,2013-01-23 10:22:00,
2013-01-23 11:32:00,43.0,43.0,29.53,SSE,149,0.0,1.0,99,-99.99,,,-99.99,,2013-01-23 10:32:00,
2013-01-23 11:42:00,43.0,43.0,29.53,SSE,149,0.0,1.0,99,-99.99,,,-99.99,,2013-01-23 10:42:00,
2013-01-23 11:52:00,43.0,43.0,29.53,SSE,150,0.0,1.0,99,-99.99,,,-99.99,,2013-01-23 10:52:00,
2013-01-23 12:02:00,44.0,44.0,29.53,SSE,151,0.0,1.0,99,-99.99,,,-99.99,,2013-01-23 11:02:00,
2013-01-23 12:11:00,44.0,44.0,29.53,SSE,151,0.0,1.0,99,-99.99,,,-99.99,,2013-01-23 11:11:00,
2013-01-23 12:22:00,44.0,44.0,29.56,SSE,156,0.0,0.0,99,-99.99,,,-99.99,,2013-01-23 11:22:00,
2013-01-23 12:32:00,45.0,45.0,29.53,SSE,156,0.0,0.0,99,-99.99,,,-99.99,,2013-01-23 11:32:00,
2013-01-23 12:42:00,45.0,45.0,29.53,SSE,156,0.0,0.0,99,-99.99,,,-99.99,,2013-01-23 11:42:00,
2013-01-23 12:53:00,45.0,45.0,29.56,SSE,155,0.0,0.0,99,-99.99,,,-99.99,,2013-01-23 11:53:00,
2013-01-23 13:02:00,45.0,45.0,29.56,SSE,157,0.0,0.0,99,-99.99,,,-99.99,,2013-01-23 12:02:00,
2013-01-23 13:12:00,45.0,45.0,29.56,SSE,157,0.0,0.0,99,-99.99,,,-99.99,,2013-01-23 12:12:00,
2013-01-23 13:22:00,46.0,46.0,29.56,SSE,160,0.0,0.0,99,-99.99,,,-99.99,,2013-01-23 12:22:00,
2013-01-23 13:32:00,46.0,46.0,29.53,SSE,160,0.0,0.0,99,-99.99,,,-99.99,,2013-01-23 12:32:00,
2013-01-23 13:42:00,46.0,46.0,29.53,SSE,160,0.0,0.0,99,-99.99,,,-99.99,,2013-01-23 12:42:00,
2013-01-23 13:53:00,46.0,46.0,29.53,SSE,160,0.0,0.0,99,-99.99,,,-99.99,,2013-01-23 12:53:00,
2013-01-23 14:03:00,47.0,47.0,29.56,SSE,165,0.0,0.0,99,-99.99,,,-99.99,,2013-01-23 13:03:00,
2013-01-23 14:12:00,47.0,47.0,29.56,SSE,165,0.0,0.0,99,-99.99,,,-99.99,,2013-01-23 13:12:00,
2013-01-23 14:23:00,48.0,48.0,29.56,SSE,162,0.0,0.0,99,-99.99,,,-99.99,,2013-01-23 13:23:00,
2013-01-23 14:33:00,48.0,48.0,29.56,SSE,163,0.0,0.0,99,-99.99,,,-99.99,,2013-01-23 13:33:00,
2013-01-23 14:42:00,48.0,48.0,29.56,SSE,163,0.0,0.0,99,-99.99,,,-99.99,,2013-01-23 13:42:00,
2013-01-23 14:53:00,49.0,49.0,29.56,SSE,160,0.0,0.0,99,-99.99,,,-99.99,,2013-01-23 13:53:00,
2013-01-23 15:02:00,49.0,49.0,29.56,SSE,158,0.0,0.0,99,-99.99,,,-99.99,,2013-01-23 14:02:00,
2013-01-23 15:11:00,49.0,49.0,29.56,SSE,158,0.0,0.0,99,-99.99,,,-99.99,,2013-01-23 14:11:00,
2013-01-23 15:23:00,48.0,48.0,29.56,SSE,158,0.0,0.0,99,-99.99,,,-99.99,,2013-01-23 14:23:00,
2013-01-23 15:33:00,48.0,48.0,29.56,SSE,154,0.0,0.0,99,-99.99,,,-99.99,,2013-01-23 14:33:00,
2013-01-23 15:42:00,48.0,48.0,29.56,SSE,154,0.0,0.0,99,-99.99,,,-99.99,,2013-01-23 14:42:00,
2013-01-23 15:52:00,48.0,48.0,29.56,SSE,154,0.0,0.0,99,-99.99,,,-99.99,,2013-01-23 14:52:00,
2013-01-23 16:02:00,47.0,47.0,29.59,SSE,152,0.0,1.0,99,-99.99,,,-99.99,,2013-01-23 15:02:00,
2013-01-23 16:12:00,47.0,47.0,29.59,SSE,152,0.0,1.0,99,-99.99,,,-99.99,,2013-01-23 15:12:00,
2013-01-23 16:22:00,47.0,47.0,29.59,SSE,151,0.0,0.0,99,-99.99,,,-99.99,,2013-01-23 15:22:00,
2013-01-23 16:33:00,47.0,47.0,29.59,SSE,151,0.0,0.0,99,-99.99,,,-99.99,,2013-01-23 15:33:00,
2013-01-23 16:42:00,47.0,47.0,29.59,SSE,151,0.0,0.0,99,-99.99,,,-99.99,,2013-01-23 15:42:00,
2013-01-23 16:52:00,47.0,47.0,29.59,SSE,153,0.0,0.0,99,-99.99,,,-99.99,,2013-01-23 15:52:00,
2013-01-23 17:03:00,47.0,47.0,29.59,SSE,153,0.0,0.0,99,-99.99,,,-99.99,,2013-01-23 16:03:00,
2013-01-23 17:12:00,47.0,47.0,29.59,SSE,153,0.0,0.0,99,-99.99,,,-99.99,,2013-01-23 16:12:00,
2013-01-23 17:22:00,49.0,49.0,29.59,SSE,164,0.0,0.0,99,-99.99,,,-99.99,,2013-01-23 16:22:00,
2013-01-23 17:32:00,49.0,49.0,29.59,SSE,164,0.0,0.0,99,-99.99,,,-99.99,,2013-01-23 16:32:00,
2013-01-23 17:43:00,49.0,49.0,29.59,SSE,164,0.0,0.0,99,-99.99,,,-99.99,,2013-01-23 16:43:00,
2013-01-23 17:52:00,49.0,49.0,29.62,SSE,163,0.0,0.0,99,-99.99,,,-99.99,,2013-01-23 16:52:00,
2013-01-23 18:02:00,49.0,49.0,29.62,SSE,163,0.0,0.0,99,-99.99,,,-99.99,,2013-01-23 17:02:00,
2013-01-23 18:12:00,49.0,49.0,29.62,SSE,163,0.0,0.0,99,-99.99,,,-99.99,,2013-01-23 17:12:00,
2013-01-23 18:22:00,46.0,46.0,29.62,SE,146,0.0,0.0,99,-99.99,,,-99.99,,2013-01-23 17:22:00,
2013-01-23 18:33:00,44.0,44.0,29.62,SE,139,0.0,0.0,99,-99.99,,,-99.99,,2013-01-23 17:33:00,
2013-01-23 18:43:00,44.0,44.0,29.62,SE,139,0.0,0.0,99,-99.99,,,-99.99,,2013-01-23 17:43:00,
2013-01-23 18:53:00,44.0,44.0,29.62,SE,139,0.0,0.0,99,-99.99,,,-99.99,,2013-01-23 17:53:00,
2013-01-23 19:02:00,41.0,37.0,29.65,SE,132,0.0,0.0,87,-99.99,,,-99.99,,2013-01-23 18:02:00,
2013-01-23 19:12:00,41.0,37.0,29.65,SE,132,0.0,0.0,87,-99.99,,,-99.99,,2013-01-23 18:12:00,
2013-01-23 19:22:00,40.0,36.0,29.65,SE,133,0.0,0.0,87,-99.99,,,-99.99,,2013-01-23 18:22:00,
2013-01-23 19:32:00,40.0,36.0,29.65,SE,133,0.0,0.0,87,-99.99,,,-99.99,,2013-01-23 18:32:00,
2013-01-23 19:42:00,39.0,36.0,29.65,SE,132,0.0,0.0,88,-99.99,,,-99.99,,2013-01-23 18:42:00,
2013-01-23 19:52:00,38.0,35.0,29.65,SE,132,0.0,0.0,88,-99.99,,,-99.99,,2013-01-23 18:52:00,
2013-01-23 20:02:00,37.0,34.0,29.65,SE,136,0.0,0.0,90,-99.99,,,-99.99,,2013-01-23 19:02:00,
2013-01-23 20:12:00,37.0,34.0,29.65,SE,136,0.0,0.0,90,-99.99,,,-99.99,,2013-01-23 19:12:00,
2013-01-23 20:22:00,37.0,34.0,29.65,SE,136,0.0,0.0,90,-99.99,,,-99.99,,2013-01-23 19:22:00,
2013-01-23 20:33:00,37.0,34.0,29.65,SE,134,0.0,0.0,90,-99.99,,,-99.99,,2013-01-23 19:33:00,
2013-01-23 20:42:00,37.0,34.0,29.65,SE,134,0.0,0.0,90,-99.99,,,-99.99,,2013-01-23 19:42:00,
2013-01-23 20:53:00,37.0,34.0,29.65,SE,134,0.0,0.0,90,-99.99,,,-99.99,,2013-01-23 19:53:00,
2013-01-23 21:02:00,36.0,33.0,29.65,SE,132,0.0,0.0,87,-99.99,,,-99.99,,2013-01-23 20:02:00,
2013-01-23 21:12:00,36.0,33.0,29.65,SE,132,0.0,0.0,87,-99.99,,,-99.99,,2013-01-23 20:12:00,
2013-01-23 21:22:00,34.0,31.0,29.65,SE,133,0.0,0.0,88,-99.99,,,-99.99,,2013-01-23 20:22:00,
2013-01-23 21:32:00,34.0,31.0,29.65,SE,133,0.0,0.0,88,-99.99,,,-99.99,,2013-01-23 20:32:00,
2013-01-23 21:42:00,34.0,31.0,29.65,SE,133,0.0,0.0,88,-99.99,,,-99.99,,2013-01-23 20:42:00,
2013-01-23 21:53:00,34.0,31.0,29.65,SE,135,0.0,0.0,88,-99.99,,,-99.99,,2013-01-23 20:53:00,
2013-01-23 22:02:00,34.0,31.0,29.65,SE,135,0.0,0.0,88,-99.99,,,-99.99,,2013-01-23 21:02:00,
2013-01-23 22:12:00,34.0,31.0,29.65,SE,135,0.0,0.0,88,-99.99,,,-99.99,,2013-01-23 21:12:00,
2013-01-23 22:22:00,33.0,30.0,29.65,SE,135,0.0,0.0,87,-99.99,,,-99.99,,2013-01-23 21:22:00,
2013-01-23 22:33:00,33.0,30.0,29.65,SE,135,0.0,0.0,87,-99.99,,,-99.99,,2013-01-23 21:33:00,
2013-01-23 22:43:00,33.0,30.0,29.65,SE,135,0.0,0.0,87,-99.99,,,-99.99,,2013-01-23 21:43:00,
2013-01-23 22:53:00,32.0,27.0,29.65,SE,130,0.0,0.0,83,-99.99,,,-99.99,,2013-01-23 21:53:00,
2013-01-23 23:02:00,32.0,27.0,29.65,SE,130,0.0,0.0,83,-99.99,,,-99.99,,2013-01-23 22:02:00,
2013-01-23 23:12:00,32.0,27.0,29.65,SE,130,0.0,0.0,83,-99.99,,,-99.99,,2013-01-23 22:12:00,
2013-01-23 23:22:00,32.0,27.0,29.65,SE,132,0.0,0.0,83,-99.99,,,-99.99,,2013-01-23 22:22:00,
2013-01-23 23:32:00,32.0,27.0,29.65,SE,129,0.0,1.0,80,-99.99,,,-99.99,,2013-01-23 22:32:00,
2013-01-23 23:42:00,32.0,27.0,29.65,SE,129,0.0,1.0,80,-99.99,,,-99.99,,2013-01-23 22:42:00,
2013-01-23 23:52:00,32.0,27.0,29.65,SE,133,0.0,0.0,83,-99.99,,,-99.99,,2013-01-23 22:52:00,